Location: Bh?mavarapp?du
(16.7041°N, 80.6518°E)
Time: 14:13:10
(UTC+00:00)

Daily predictions for brighter satellites

Satellite Brightness Start Highest point End
(mag) Time Altitude Azimuth Time Altitude Azimuth Time Altitude Azimuth
BREEZE-M DEB (TANK) 4.5 12:56:36 10° NNW 13:01:36 75° NE 13:24:23 10° SE
NOSS 3-2 (A) 4.4 13:01:56 10° NNW 13:10:12 63° ENE 13:18:54 10° SE
Cosmos 2360 Rocket 3.5 13:09:30 10° NNE 13:13:37 21° ENE 13:17:43 10° ESE
USA 32 4.2 13:09:11 10° S 13:14:23 83° W 13:19:37 10° N
CZ-4 R/B 4.4 13:10:26 10° SSE 13:14:31 69° ENE 13:18:35 10° N
Meteor 1-11 4.5 13:11:52 10° N 13:17:22 49° E 13:22:46 10° SSE
Cosmos 2058 Rocket 4.2 13:14:16 10° SE 13:17:37 22° E 13:20:57 10° NE
Cosmos 405 3.8 13:14:53 10° SSE 13:17:50 27° E 13:20:48 10° NE
Meteor 2-10 Rocket 3.8 13:13:25 10° SSE 13:18:16 46° E 13:23:16 10° NNE
Cosmos 909 Rocket 4.2 13:11:05 10° SSW 13:18:16 70° ESE 13:24:32 10° NNE
CZ-4 R/B 1.7 13:18:06 10° SSE 13:22:08 49° ENE 13:26:12 10° N
SL-4 R/B 2.1 13:22:22 10° SW 13:26:17 78° NW 13:30:32 10° NE
Lacrosse 4 Rocket 4.1 13:25:07 10° WNW 13:28:03 19° WSW 13:30:57 10° SSW
SWIFT 2.8 13:24:57 10° WNW 13:29:05 54° N 13:33:03 11° E
Feng Yun 1-1 Rocket 4.4 13:24:39 10° S 13:30:23 81° WSW 13:35:59 10° NNW
Palapa 6 Rocket 3.5 13:26:29 10° W 13:30:40 49° NNW 13:34:22 10° ENE
SAR-Lupe-4 3.4 13:30:51 10° NNE 13:34:25 74° ESE 13:37:58 10° S
SL-16 R/B 2.3 13:29:07 10° NNW 13:34:46 83° WSW 13:40:25 10° SSE
ERS-2 2.0 13:31:21 10° NNE 13:34:56 64° ESE 13:38:31 10° S
Cosmos 2344 4.1 13:26:31 10° SSW 13:35:04 67° WNW 13:42:26 10° NNE
Cosmos 1455 2.8 13:32:36 10° SSE 13:35:59 32° E 13:39:21 10° NNE
IRS-1C Rocket 4.0 13:31:54 10° SSE 13:37:09 77° ENE 13:42:25 10° N
GPS 2-12 Rocket1 3.3 13:34:03 10° W 13:38:37 65° N 13:42:37 13° ENE
OAO 1 Rocket 4.4 13:35:03 10° NW 13:40:21 80° NNE 13:44:30 17° ESE
Okean O Rocket 4.5 13:38:05 10° SW 13:41:12 19° W 13:44:19 10° NW
Cosmos 2034 Rocket 4.2 13:35:57 10° S 13:42:07 78° W 13:48:20 10° N
RESURS DK-1 4.1 13:39:20 10° SW 13:43:07 37° WNW 13:46:56 10° N
Helios 1A Rocket 3.9 13:44:33 18° ESE 13:46:26 26° ENE 13:49:50 10° NNE
HJ-1C 3.3 13:44:21 10° SSE 13:47:33 60° ENE 13:50:47 10° N
Cosmos 2237 4.2 13:42:11 10° N 13:47:47 62° ENE 13:53:21 10° SSE
Cosmos 1825 Rocket 3.7 13:44:44 10° N 13:49:01 50° E 13:53:19 10° SSE
SJ-11-01 4.5 13:45:50 10° S 13:50:34 75° WSW 13:55:18 10° NNW
CSL-04 Debris 4.4 13:45:35 10° SSE 13:50:50 49° ENE 13:56:05 10° N
YAOGAN 1 2.7 13:47:48 10° S 13:52:06 75° WSW 13:56:24 10° NNW
Meteor 2-13 Rocket 4.4 13:46:38 10° N 13:52:45 86° E 13:58:53 10° S
Cosmos 407 Rocket 4.2 13:49:58 10° SSE 13:54:17 28° E 13:58:35 10° NE
BREEZE M DEB (TANK) 3.0 13:52:15 10° WSW 13:54:35 45° NW 13:57:21 10° NNE
Nadezhda 4 Rocket 4.0 13:48:38 10° N 13:54:46 59° E 14:00:49 10° SSE
Cosmos 1758 Rocket 3.8 13:54:41 10° N 13:59:09 72° W 14:03:37 10° S
Cosmos 2227 Rocket 2.9 13:54:26 10° SSE 13:59:13 28° ESE 14:03:59 10° NE
Aurora 2 Rocket 2.4 13:56:16 10° WNW 13:59:16 45° NNE 14:00:30 30° ENE
Cosmos 2297 Rocket 2.3 14:00:40 10° S 14:06:02 48° ESE 14:11:25 10° NNE
Hubble Space Telescope 2.8 14:06:54 10° WNW 14:10:16 24° NNW 14:13:15 12° NE
Cosmos 1140 Rocket 3.9 14:06:20 10° SSE 14:11:01 37° E 14:15:42 10° NE
H-2A R/B 3.6 14:06:28 10° SSW 14:11:03 34° W 14:15:32 10° NW
Cosmos 2219 3.3 14:07:50 10° S 14:13:14 49° ESE 14:18:36 10° NNE
ARGOS 3.8 14:08:30 10° S 14:13:47 57° WSW 14:19:03 10° NNW
Cosmos 1634 Rocket 3.9 14:08:25 10° S 14:14:44 82° E 14:21:00 10° N
Cosmos 2084 Rocket 3.3 14:13:34 10° SSW 14:17:32 77° WNW 14:21:28 10° NNE
Centaur D-1AR AC-36 2.4 14:05:06 10° WSW 14:17:54 70° SSE 14:19:27 40° E
Cosmos 2322 Rocket 3.5 14:13:20 10° NW 14:18:34 38° WSW 14:23:47 10° S
Cosmos 2142 Rocket 4.5 14:14:54 10° S 14:21:02 60° E 14:27:15 10° NNE
Atlas Centaur 2 3.1 14:14:12 10° WNW 14:22:18 83° SSW 14:26:28 35° SE
NOSS 3-2 (C) 4.4 14:14:01 10° NNW 14:22:25 72° WSW 14:30:24 13° SSE
OBJECT-B 3.6 14:26:08 10° NNE 14:26:08 10° NNE 14:26:10 10° NNE
Cosmos 1408 3.2 14:19:55 10° N 14:22:27 41° NNE 14:22:27 41° NNE
GPS 2-14 Rocket1 2.7 14:21:43 10° W 14:25:35 62° SSW 14:25:37 62° SSW
CSL-04 Rocket 3.8 14:24:15 14° S 14:28:46 70° WSW 14:34:01 10° NNW
Cosmos 2333 Rocket 2.4 14:25:12 10° N 14:30:41 47° ENE 14:30:56 47° E
Cosmos 1892 3.0 14:27:51 10° NNW 14:31:36 64° W 14:32:11 54° SW
Timation 2 Rocket 4.0 14:26:23 10° S 14:33:08 74° ESE 14:39:40 10° NNE
Meteor 2-19 Rocket 4.4 14:28:33 10° N 14:34:38 61° E 14:35:51 51° SE
Cosmos 1825 4.3 14:32:56 10° N 14:34:01 18° NNE 14:34:01 18° NNE
OAO 3 Copernicus 4.1 14:31:50 10° NW 14:36:55 86° NNE 14:37:17 77° ESE
Cosmos 2322 3.6 14:33:13 10° N 14:38:46 62° ENE 14:39:00 61° E
USA 186 3.6 14:41:20 30° NNW 14:41:20 30° NNW 14:43:09 10° NNW
Cosmos 2180 Rocket 4.4 14:39:43 57° ESE 14:40:00 57° E 14:46:00 10° NNE
Cosmos 1190 Rocket 4.2 14:51:30 61° NNE 14:51:30 61° NNE 14:55:47 10° NNE
Ariane Rocket 4.1 14:55:08 33° NNE 14:55:08 33° NNE 14:58:00 10° N
CENTAUR R/B 4.4 14:46:26 10° NW 14:54:23 38° WSW 15:02:10 10° S
SEDSat Delta rocket 3.8 14:48:35 10° WNW 14:55:24 87° SSW 14:55:47 80° SE
Cosmos 2360 Rocket 3.8 14:52:35 10° NW 14:57:27 30° WSW 15:00:47 17° SSW
ATLAS 3B R/B 3.6 14:57:04 10° N 15:02:32 37° NE 15:02:32 37° NE
SWIFT 4.5 15:06:50 10° W 15:08:38 25° W 15:08:38 25° W
COSMOS 2428 3.4 15:06:03 10° NNW 15:10:07 48° N 15:10:07 48° N
Cosmos 2219 Rocket 2.7 15:07:06 10° NNW 15:11:36 57° NW 15:11:36 57° NW
Cosmos 2227 Rocket 4.3 15:38:44 10° WSW 15:43:04 22° WNW 15:47:24 10° NNW
Milstar 3 4.1 21:15:31 36° N 21:15:31 36° N 21:23:34 10° ENE
Cosmos 1607 4.5 21:47:07 56° ENE 21:47:07 56° ENE 21:52:32 10° NNE
ADEOS Rocket 4.3 21:57:45 31° NNW 21:57:45 31° NNW 22:01:01 10° NNW
Cosmos 1867 4.4 21:57:04 47° E 21:57:04 47° E 22:01:28 10° NE
Cosmos 2369 Rocket 4.1 22:14:13 16° NNW 22:14:13 16° NNW 22:15:39 10° NNW
Cosmos 1727 Rocket 4.3 22:13:11 53° NNW 22:13:11 53° NNW 22:18:04 10° N
H-2A R/B 3.5 21:54:02 10° WNW 22:23:39 64° SW 22:29:04 10° SE
CZ-4C R/B 3.1 22:17:52 10° NNW 22:26:04 69° WSW 22:34:38 10° SSE
Stardust Del rocket 4.1 22:31:44 52° NNW 22:32:34 62° NNE 22:40:22 10° E
BREEZE M DEB (TANK) 4.1 22:32:54 43° W 22:34:58 60° SW 22:55:55 10° SSE
GPS 2-18 Rocket1 3.5 22:38:57 59° SE 22:38:57 59° SE 22:42:29 10° E
GPS 2-17 Rocket1 2.8 22:45:01 67° SSW 22:45:19 71° SSE 22:49:38 10° E
Cosmos 1000 Rocket 4.5 22:43:02 35° SSW 22:45:39 61° W 22:51:54 10° N
Delta 198 3.3 22:48:38 51° NNW 22:48:40 51° NNW 22:52:18 10° ENE
ALOS 2.1 22:46:09 10° N 22:50:47 71° WNW 22:52:32 37° SSW
FENGYUN 3A 3.6 22:47:36 10° N 22:52:54 64° WNW 22:55:45 28° SSW
ATLAS CENTAUR R/B 1.1 22:53:02 47° S 22:53:55 72° ESE 22:57:32 10° NNE
CZ-2C R/B 3.3 22:50:08 10° NNW 22:54:01 30° WNW 22:54:01 30° WNW
Cosmos 1484 Rocket 2.7 22:55:11 10° N 22:59:10 76° WNW 23:01:05 29° SSW
ATLAS 2A CENTAUR R/B 3.3 22:58:07 23° SSW 23:01:03 47° SE 23:16:35 10° ENE
PSLV R/B 4.0 22:57:27 10° N 23:01:18 37° WNW 23:01:28 36° W
ISS -3.8 23:02:05 60° W 23:02:28 67° NW 23:05:49 10° NNE
GP-B 3.3 22:58:20 10° NNW 23:02:34 46° W 23:04:08 32° SW
Cosmos 1048 Rocket 3.9 23:03:28 10° NNW 23:08:47 78° WSW 23:14:01 10° S
Cosmos 1975 Rocket 3.2 23:06:52 23° SSW 23:09:22 50° W 23:13:41 10° N
Cosmos 1758 3.6 23:05:45 10° N 23:09:48 69° E 23:13:51 10° S
Meteor 2-10 4.1 23:06:20 10° NNW 23:11:49 64° W 23:17:05 10° S
GOES 2 Rocket 4.3 23:10:03 21° WNW 23:12:36 37° NNW 23:17:44 10° NE
Centaur D AC-25 2.6 23:07:02 10° WNW 23:12:47 63° NNE 23:16:16 10° ESE
IUS R/B (1) 4.0 23:11:12 23° SW 23:12:55 29° S 23:24:06 10° SE
METEOR-M 4.2 23:08:31 10° N 23:13:45 57° WNW 23:18:58 10° SSW
Cosmos 1674 2.5 23:10:41 12° S 23:14:03 72° W 23:17:49 10° N
ADEOS 3.9 23:09:14 10° NNE 23:14:24 67° ESE 23:19:34 10° S
Landsat 5 4.3 23:16:52 10° SSE 23:21:11 58° ENE 23:25:34 10° N
Cosmos 1802 Rocket 3.9 23:17:10 10° N 23:23:19 78° W 23:29:26 10° S
Cosmos 1025 Rocket 2.9 23:19:26 10° S 23:23:41 79° W 23:27:56 10° N
SJ-12 4.0 23:21:36 10° NNE 23:25:43 79° ESE 23:29:51 10° S
Delta 168 4.3 23:19:45 10° WNW 23:26:52 52° N 23:31:33 10° E
Cosmos 494 Rocket 3.9 23:24:14 10° NNW 23:29:22 67° WSW 23:34:28 10° S
Cosmos 1315 Rocket 3.8 23:26:56 10° N 23:30:43 48° E 23:34:32 10° SSE
Cosmos 1626 2.0 23:28:45 10° S 23:32:26 89° W 23:36:08 10° N
BREEZE-M DEB (TANK) 2.2 23:30:33 10° NW 23:32:46 77° NE 23:36:36 10° SE
Cosmos 1656 4.4 23:28:11 10° S 23:33:27 54° ESE 23:38:42 10° NNE
Cosmos 1470 3.7 23:31:32 10° NW 23:34:44 25° W 23:37:58 10° SSW
FALCON 9 DEB 2.8 23:32:33 10° NW 23:35:36 61° SW 23:38:41 10° SSE
SL-4 R/B 2.3 23:32:12 10° NW 23:36:52 62° SW 23:41:16 10° SSE
OAO 3 Rocket 3.7 23:33:19 15° WSW 23:37:16 50° NNW 23:42:04 10° NE
Okean 1 Rocket 4.3 23:34:39 10° NW 23:37:56 20° W 23:41:11 10° SW
SL-24 R/B 4.4 23:34:29 10° S 23:38:49 43° W 23:42:39 10° NNW
FALCON 9 DEB 3.5 23:38:25 10° WNW 23:41:16 34° SW 23:44:07 10° SSE
Cosmos 2016 Rocket 4.1 23:40:03 10° NNW 23:46:13 58° W 23:52:17 10° S
Cosmos 1726 3.4 23:43:38 10° NW 23:46:25 20° W 23:49:11 10° SW
Iridium 2 4.1 23:42:59 10° SSW 23:46:30 40° W 23:50:03 10° NNW
Cosmos 371 Rocket 3.5 23:41:46 10° S 23:46:33 79° ESE 23:51:22 10° NNE
MOS 1 Rocket 3.8 23:42:06 10° SSE 23:47:27 85° ENE 23:52:53 10° N
ATLAS 2AS CENTAUR R/B 2.9 23:45:07 10° NW 23:51:23 41° WSW 23:57:19 10° S
Cosmos 2233 Rocket 4.3 23:46:28 10° N 23:52:43 77° E 23:58:53 10° S
FALCON 9 DEB 4.3 23:51:15 10° WNW 23:53:36 20° WSW 23:55:58 10° S
Cosmos 1400 Rocket 4.5 23:51:31 10° NW 23:54:01 16° W 23:56:30 10° SW
RESURS DK-1 4.2 23:51:49 10° N 23:55:41 38° ENE 23:59:31 10° SE
